Home > Weather > Escuintla > Past weeks

Flag for Guatemala Past Weather in Escuintla, Guatemala — Yesterday and Last 2 Weeks

Now
79 °F

Broken clouds.


Feels Like: 80 °F
Forecast: 72 / 88 °F
Wind: 14 mph from Northeast

Location: Guatemala Aeropuertola Aurora

Current Time: Aug 28, 2016 at 12:55:34 PM

Latest Report: Aug 28, 2016 at 12:00 PM


Visibility: N/A

Pressure: 30.24 "Hg

Humidity: 58%

Dew Point: 63 °F

Location of EscuintlaLocation

Past Weather in Escuintla — Graph

°F

Escuintla Temperature Yesterday

Maximum temperature yesterday: 77 °F (at 12:00 PM)
Minimum temperature yesterday: 64 °F (at 2:00 AM)
Average temperature yesterday: 69 °F

High & Low Weather Summary for the Past Weeks

 TemperatureHumidityPressure
High79 °F (Aug 13, 12:00 PM)100% (Aug 14, 4:00 AM)30.39 "Hg (Aug 14, 4:00 AM)
Low61 °F (Aug 15, 6:00 AM)42% (Aug 23, 1:00 PM)30.12 "Hg (Aug 13, 4:00 PM)
Average69 °F79%30.27 "Hg
* Reported Aug 13 11:00 AM — Aug 28 11:00 AM, Escuintla, Weather by CustomWeather, © 2016

Note: Actual official high and low records may vary slightly from our data, if they occured in-between our weather recording intervals... More about our weather records

Advertising

Escuintla Weather History for the Previous 24 Hours

Scroll right to see more
 ConditionsComfort  
Time TempWeatherWind HumidityBarometerVisibility
11:00 AM
Sun, Aug 28
77 °FBroken clouds.7 mph57%30.27 "HgN/A
10:00 AM75 °FBroken clouds.12 mph61%30.30 "HgN/A
9:00 AM68 °FPartly sunny.14 mph83%30.30 "HgN/A
8:00 AM70 °FBroken clouds.12 mph78%30.27 "HgN/A
7:00 AM66 °FBroken clouds.12 mph88%30.27 "HgN/A
6:00 AM64 °FBroken clouds.12 mph94%30.27 "HgN/A
5:00 AM64 °FPassing clouds.14 mph94%30.24 "HgN/A
4:00 AM66 °FPassing clouds.9 mph88%30.24 "HgN/A
3:00 AM66 °FPassing clouds.7 mph88%30.24 "HgN/A
2:00 AM66 °FPassing clouds.12 mph94%30.24 "HgN/A
1:00 AM66 °FPassing clouds.16 mph94%30.24 "HgN/A
12:00 AM68 °FPassing clouds.7 mph88%30.27 "HgN/A
11:00 PM
Sat, Aug 27
68 °FPassing clouds.12 mph83%30.30 "HgN/A
10:00 PM68 °FPassing clouds.5 mph88%30.27 "HgN/A
9:00 PM70 °FPassing clouds.7 mph83%30.24 "HgN/A
8:00 PM70 °FPassing clouds.12 mph83%30.21 "HgN/A
7:00 PM70 °FPassing clouds.9 mph83%30.21 "HgN/A
6:00 PM70 °FScattered clouds.5 mph83%30.18 "HgN/A
5:00 PM70 °FPartly sunny.7 mph83%30.18 "HgN/A
4:00 PM72 °FScattered clouds.7 mph83%30.15 "HgN/A
3:00 PM73 °FScattered clouds.7 mph78%30.18 "HgN/A
2:00 PM77 °FScattered clouds.12 mph65%30.21 "HgN/A
1:00 PM73 °FScattered clouds.9 mph69%30.24 "Hg5 mi
12:00 PM77 °FBroken clouds.12 mph57%30.27 "HgN/A
Weather by CustomWeather, © 2016

See weather overviewHow to use our weather pages